Weather Roundup
Issued by NWS Chicago, IL

Home | Current Version | Previous Version | Graphics & Text | Print | Product List | Glossary On
Versions: 1 2 3 4 5 6 7 8 9 10 11 12 13 14 15 16 17 18 19 20 21 22 23 24 25 26 27 28 29 30 31 32 33 34 35 36 37 38 39 40 41 42 43 44 45 46 47 48 49 50
603
NZUS59 KLOT 292108
HRRLOT

CHICAGO AREA WEATHER ROUNDUP
NATIONAL WEATHER SERVICE CHICAGO/ROMEOVILLE IL
400 PM CDT WED MAR 29 2017

NOTE: "FAIR" INDICATES FEW OR NO CLOUDS BELOW 12,000 FEET WITH NO
SIGNIFICANT WEATHER AND/OR OBSTRUCTIONS TO VISIBILITY.

* THESE STATIONS ARE NOT UNDER NWS QUALITY CONTROL. THEY ALSO MAY NOT
  REPORT WEATHER SUCH AS PRECIPITATION OR FOG.

ILZ005-006-012>014-019>023-292200-
NORTHEAST ILLINOIS

CITY           SKY/WX    TMP DP  RH WIND       PRES   REMARKS
OHARE          CLOUDY    47  34  60 NE16      30.15F
MIDWAY         LGT RAIN  49  35  58 NE20G25   30.15F
AURORA         CLOUDY    48  37  65 E17       30.11F
LANSING*       CLOUDY    46  38  74 NE9       30.18R
JOLIET*        CLOUDY    47  40  75 E15G22    30.11F
WAUKEGAN       CLOUDY    41  35  79 NE8       30.20F
DUPAGE AIRPORT CLOUDY    46  37  71 E16       30.11F
WHEELING       CLOUDY    43  36  76 E13G22    30.18F
KANKAKEE*      LGT RAIN  52  40  62 E23G30    30.08F
MORRIS*        LGT RAIN  47  39  73 E15G22    30.07F
LEWIS AIRPORT* LGT RAIN  45  41  85 E20       30.11F
NORTHERLY ISL    N/A     42  36  79 MISG        N/A
$$

WIZ051-052-058>065-066-070>072-292200-
SOUTHEAST WISCONSIN

CITY           SKY/WX    TMP DP  RH WIND       PRES   REMARKS
MILWAUKEE      CLOUDY    40  35  83 NE15      30.22F
KENOSHA*       CLOUDY    44  33  65 NE13      30.20F
RACINE*        CLOUDY    41  33  73 N14       30.22F
WAUKESHA       CLOUDY    43  30  61 E10G17    30.22F
WEST BEND      CLOUDY    43  37  81 E12       30.22F
$$

INZ001>003-010>013-019-020-292200-
NORTHWEST INDIANA

CITY           SKY/WX    TMP DP  RH WIND       PRES   REMARKS
GARY*          CLOUDY    45  36  70 E9        30.20R
MICHIGAN CITY* NOT AVBL
RENSSELAER*    NOT AVBL
VALPARAISO     CLOUDY    55  37  50 E14       30.18R
$$

LMZ740>746-292200-
SOUTHERN LAKE MICHIGAN

STATION/POSITION TIME  SKY/WX   TEMP WIND        PRES    VSBY
                                AIR  DIR/SP/G
                 (UTC)          (F)  (DEG/KT/KT) (MB)    (MI)
HARRISON CRIB    2040            41   30/ 16/ 17   N/A
BURNHAM HARBOR   2100            41   10/  7/ 12   N/A
CALUMET HARBOR   2048            42   20/ 11/ 13 1021.8R
BURNS HARBOR     2040            42   70/  9/ 11 1022.7S
MICHIGAN CITY    2040            42   20/ 12/ 13   N/A
$$

ABBREVIATIONS USED IN REMARKS
   TC - TEMPERATURE IN CELSIUS
  WCI - WIND CHILL INDEX
   HX - HEAT INDEX
  VSB - VISIBILITY
$$




USA.gov is the U.S. government's official web portal to all federal, state and local government web resources and services.